Date String (YYYY-MM-DD hh:mm:ss) UTC,Instrument flags,absolute air pressure of the measurement (hPa),sample flow rate (lpm),inlet stack bypass flow (lpm),air temperature of the measurement (°C),ambient temperature measured by the external sensor (°C),aerosol sample conditioner tube jacket temperature (°C),OPC LED temperature (°C),internal box temperature (°C),relative humidity of the measurement (%),span deviation,mass concentration of particles derived from Lorenz-Mie calculation of OPC scattering (μg/m³),mass concentration of particles derived from Lorenz-Mie calculation of OPC scattering (μg/m³),mass concentration of particles derived from Lorenz-Mie calculation of OPC scattering (μg/m³)
DateTimeUTC,F1_M11,P_M11,Q1_M11,Q2_M11,T1_M11,T2_M11,T3_M11,T4_M11,T5_M11,U1_M11,ZSPAN_M11,X2_M11,X0_M11,X1_M11
2023-11-22 22:00:00,SystemResetWarning,0828.2,5.00,000.00,025.8,024.3,000.0,033.9,027.2,8.5,0000.0,0001.21,0009.99,0000.58
2023-11-22 22:01:00,SystemResetWarning,0828.2,5.00,000.00,025.8,024.5,000.0,033.9,027.3,8.5,0000.0,0001.25,0009.68,0000.59
2023-11-22 22:02:00,SystemResetWarning,0828.2,5.01,000.00,025.8,024.7,000.0,033.9,027.3,8.5,0000.0,0001.30,0009.25,0000.60
2023-11-22 22:03:00,SystemResetWarning,0828.2,4.99,000.00,025.9,024.9,000.0,033.9,027.4,8.5,0000.0,0001.24,0008.92,0000.59
2023-11-22 22:04:00,SystemResetWarning,0828.2,5.00,000.00,025.9,025.0,000.0,034.0,027.5,8.4,0000.0,0001.22,0008.87,0000.58
2023-11-22 22:05:00,SystemResetWarning,0828.2,5.00,000.00,026.0,025.1,000.0,034.0,027.6,8.4,0000.0,0001.21,0009.01,0000.58
2023-11-22 22:06:00,SystemResetWarning,0828.2,5.00,000.00,026.0,025.2,000.0,034.0,027.6,8.5,0000.0,0001.17,0008.96,0000.57
2023-11-22 22:07:00,SystemResetWarning,0828.2,4.99,000.00,026.1,025.3,000.0,034.0,027.6,8.5,0000.0,0001.20,0008.35,0000.57
2023-11-22 22:08:00,SystemResetWarning,0828.2,4.99,000.00,026.1,024.1,000.0,034.0,027.4,8.6,0000.0,0001.23,0008.22,0000.57
2023-11-22 22:09:00,SystemResetWarning,0828.1,5.00,000.00,025.9,022.3,000.0,034.0,026.9,8.7,0000.0,0001.26,0008.25,0000.58
2023-11-22 22:10:00,SystemResetWarning,0828.1,5.01,000.00,025.8,021.9,000.0,033.9,026.7,8.7,0000.0,0001.28,0007.60,0000.60
2023-11-22 22:11:00,SystemResetWarning,0828.1,5.01,000.00,025.6,022.2,000.0,033.9,026.4,8.6,0000.0,0001.29,0007.64,0000.60
2023-11-22 22:12:00,SystemResetWarning,0828.1,4.99,000.00,025.5,022.7,000.0,033.8,026.5,8.6,0000.0,0001.29,0008.49,0000.60
2023-11-22 22:13:00,SystemResetWarning,0828.1,5.00,000.00,025.5,023.1,000.0,033.8,026.7,8.6,0000.0,0001.25,0009.39,0000.58
2023-11-22 22:14:00,SystemResetWarning,0828.1,5.00,000.00,025.5,023.4,000.0,033.8,026.8,8.7,0000.0,0001.28,0008.69,0000.58
2023-11-22 22:15:00,SystemResetWarning,0828.1,5.01,000.00,025.6,023.7,000.0,033.8,026.9,8.7,0000.0,0001.33,0008.91,0000.59
2023-11-22 22:16:00,SystemResetWarning,0828.1,4.99,000.00,025.6,024.0,000.0,033.8,027.0,8.7,0000.0,0001.30,0008.69,0000.60
2023-11-22 22:17:00,SystemResetWarning,0828.1,4.99,000.00,025.6,024.3,000.0,033.8,027.1,8.6,0000.0,0001.34,0009.87,0000.60
2023-11-22 22:18:00,SystemResetWarning,0828.1,4.99,000.00,025.7,024.5,000.0,033.8,027.2,8.6,0000.0,0001.28,0010.39,0000.59
2023-11-22 22:19:00,SystemResetWarning,0828.1,5.00,000.00,025.7,024.6,000.0,033.8,027.3,8.6,0000.0,0001.25,0010.27,0000.58
2023-11-22 22:20:00,SystemResetWarning,0828.1,5.00,000.00,025.8,024.8,000.0,033.8,027.3,8.6,0000.0,0001.26,0010.96,0000.58
2023-11-22 22:21:00,SystemResetWarning,0828.1,5.00,000.00,025.8,024.9,000.0,033.8,027.4,8.5,0000.0,0001.27,0011.13,0000.56
2023-11-22 22:22:00,SystemResetWarning,0828.1,5.00,000.00,025.9,025.1,000.0,033.9,027.5,8.5,0000.0,0001.29,0011.21,0000.56
2023-11-22 22:23:00,SystemResetWarning,0828.0,5.00,000.00,025.9,025.2,000.0,033.9,027.5,8.7,0000.0,0001.31,0010.83,0000.56
2023-11-22 22:24:00,SystemResetWarning,0828.0,5.00,000.00,026.0,025.3,000.0,033.9,027.6,8.6,0000.0,0001.34,0010.16,0000.57
2023-11-22 22:25:00,SystemResetWarning,0828.1,5.00,000.00,026.0,024.9,000.0,034.0,027.6,8.5,0000.0,0001.40,0010.09,0000.56
2023-11-22 22:26:00,SystemResetWarning,0828.1,4.99,000.00,026.0,023.3,000.0,034.0,027.3,8.5,0000.0,0001.40,0009.54,0000.56
2023-11-22 22:27:00,SystemResetWarning,0828.0,5.02,000.00,025.8,022.7,000.0,033.9,027.1,8.5,0000.0,0001.47,0010.08,0000.57
2023-11-22 22:28:00,SystemResetWarning,0828.0,5.00,000.00,025.7,022.9,000.0,033.9,026.8,8.5,0000.0,0001.50,0010.59,0000.57
2023-11-22 22:29:00,SystemResetWarning,0828.1,5.00,000.00,025.7,023.2,000.0,033.9,026.8,8.5,0000.0,0001.55,0009.98,0000.57
2023-11-22 22:30:00,SystemResetWarning,0828.1,5.00,000.00,025.7,023.6,000.0,033.9,026.9,8.6,0000.0,0001.66,0010.10,0000.58
2023-11-22 22:31:00,SystemResetWarning,0828.1,5.00,000.00,025.7,023.9,000.0,033.8,027.0,8.5,0000.0,0001.68,0009.84,0000.58
2023-11-22 22:32:00,SystemResetWarning,0828.0,5.00,000.00,025.7,024.1,000.0,033.9,027.1,8.6,0000.0,0001.71,0009.19,0000.58
2023-11-22 22:33:00,SystemResetWarning,0828.1,5.00,000.00,025.8,024.4,000.0,033.9,027.2,8.7,0000.0,0001.69,0009.13,0000.58
2023-11-22 22:34:00,SystemResetWarning,0828.1,4.99,000.00,025.8,024.6,000.0,033.9,027.3,8.6,0000.0,0001.68,0008.58,0000.59
2023-11-22 22:35:00,SystemResetWarning,0828.1,5.00,000.00,025.8,024.8,000.0,033.9,027.4,8.6,0000.0,0001.69,0008.54,0000.59
2023-11-22 22:36:00,SystemResetWarning,0828.2,5.00,000.00,025.9,024.9,000.0,033.9,027.4,8.7,0000.0,0001.65,0008.45,0000.60
2023-11-22 22:37:00,SystemResetWarning,0828.1,5.01,000.00,025.9,025.1,000.0,033.9,027.5,8.5,0000.0,0001.65,0008.83,0000.60
2023-11-22 22:38:00,SystemResetWarning,0828.2,5.00,000.00,026.0,025.2,000.0,034.0,027.6,8.3,0000.0,0001.65,0010.01,0000.61
2023-11-22 22:39:00,SystemResetWarning,0828.1,4.99,000.00,026.0,024.7,000.0,034.0,027.6,8.3,0000.0,0001.64,0009.99,0000.61
2023-11-22 22:40:00,SystemResetWarning,0828.1,5.00,000.00,025.9,022.8,000.0,034.0,027.1,8.4,0000.0,0001.59,0009.41,0000.62
2023-11-22 22:41:00,SystemResetWarning,0828.0,5.01,000.00,025.7,021.8,000.0,033.9,026.8,8.4,0000.0,0001.57,0009.55,0000.62
2023-11-22 22:42:00,SystemResetWarning,0828.1,5.01,000.00,025.6,021.9,000.0,033.9,026.5,8.5,0000.0,0001.54,0009.71,0000.62
2023-11-22 22:43:00,SystemResetWarning,0828.1,4.99,000.00,025.5,022.3,000.0,033.8,026.4,8.5,0000.0,0001.55,0010.44,0000.62
2023-11-22 22:44:00,SystemResetWarning,0828.1,5.01,000.00,025.5,022.8,000.0,033.8,026.6,8.5,0000.0,0001.60,0011.03,0000.63
2023-11-22 22:45:00,SystemResetWarning,0828.1,5.00,000.00,025.5,023.2,000.0,033.7,026.7,8.5,0000.0,0001.63,0011.74,0000.63
2023-11-22 22:46:00,SystemResetWarning,0828.1,5.00,000.00,025.5,023.5,000.0,033.7,026.8,8.5,0000.0,0001.69,0012.51,0000.64
2023-11-22 22:47:00,SystemResetWarning,0828.1,5.00,000.00,025.5,023.8,000.0,033.7,026.9,8.5,0000.0,0001.69,0012.90,0000.64
2023-11-22 22:48:00,SystemResetWarning,0828.1,5.00,000.00,025.6,024.1,000.0,033.7,027.0,8.4,0000.0,0001.78,0012.98,0000.65
2023-11-22 22:49:00,SystemResetWarning,0828.1,4.99,000.00,025.6,024.3,000.0,033.7,027.1,8.4,0000.0,0001.78,0012.71,0000.65
2023-11-22 22:50:00,SystemResetWarning,0828.1,5.01,000.00,025.7,024.5,000.0,033.8,027.2,8.3,0000.0,0001.75,0011.70,0000.65
2023-11-22 22:51:00,SystemResetWarning,0828.1,5.00,000.00,025.7,024.7,000.0,033.8,027.3,8.3,0000.0,0001.83,0013.43,0000.65
2023-11-22 22:52:00,SystemResetWarning,0828.2,5.00,000.00,025.8,024.8,000.0,033.8,027.3,8.1,0000.0,0001.80,0013.98,0000.64
2023-11-22 22:53:00,SystemResetWarning,0828.2,4.99,000.00,025.8,025.0,000.0,033.8,027.4,8.2,0000.0,0001.81,0014.55,0000.64
2023-11-22 22:54:00,SystemResetWarning,0828.2,5.00,000.00,025.9,025.1,000.0,033.8,027.5,8.2,0000.0,0001.77,0014.74,0000.65
2023-11-22 22:55:00,SystemResetWarning,0828.2,5.00,000.00,025.9,025.2,000.0,033.9,027.5,8.1,0000.0,0001.71,0014.82,0000.65
2023-11-22 22:56:00,SystemResetWarning,0828.2,5.00,000.00,026.0,025.3,000.0,033.9,027.6,8.1,0000.0,0001.63,0014.52,0000.64
2023-11-22 22:57:00,SystemResetWarning,0828.2,5.00,000.00,026.0,025.0,000.0,033.9,027.6,8.2,0000.0,0001.50,0013.78,0000.63
2023-11-22 22:58:00,SystemResetWarning,0828.1,5.01,000.00,025.9,023.1,000.0,033.9,027.2,8.1,0000.0,0001.47,0013.21,0000.61
2023-11-22 22:59:00,SystemResetWarning,0828.0,5.00,000.00,025.8,021.8,000.0,033.9,026.8,8.2,0000.0,0001.36,0012.68,0000.60
